Regional Weather Roundup
Issued by NWS

Home | Current Version | Previous Version | Text Only | Print | Product List | Glossary Off
Versions: 1 2 3 4 5 6 7 8 9 10 11 12 13 14 15 16 17 18 19 20 21 22 23 24 25 26 27 28 29 30 31 32 33 34 35 36 37 38 39 40 41 42 43 44 45 46 47 48 49 50

000
ASUS45 KBOU 281207
RWRCO

WEATHER ROUNDUP FOR COLORADO
NATIONAL WEATHER SERVICE DENVER/BOULDER CO
500 AM MST WED JAN 28 2015

NOTE: "FAIR" INDICATES FEW OR NO CLOUDS BELOW 12000 FEET WITH NO
SIGNIFICANT WEATHER AND/OR OBSTRUCTIONS TO VISIBILITY.

COZ001>005-013-030-031-281300-
...NORTHWEST COLORADO...

CITY           SKY/WX    TMP DP  RH WIND       PRES   REMARKS
CRAIG          CLOUDY    35  33  92 CALM      30.22S
HAYDEN         CLOUDY    36  30  80 CALM      30.22R
MEEKER         CLOUDY    39  30  70 W5        30.23S
MOUNT WERNER   NOT AVBL
STEAMBOAT SPGS CLOUDY    32  29  87 SE5       30.22R WCI  27
WALDEN         CLOUDY    34  27  75 SW13      30.18S WCI  25
$$

COZ006>008-011-281300-
...WEST CENTRAL VALLEYS...

CITY           SKY/WX    TMP DP  RH WIND       PRES   REMARKS
GRAND JUNCTION CLEAR     32  26  78 E3        30.24F
MONTROSE       CLOUDY    30  26  85 S6        30.27S WCI  24
EAGLE          PTCLDY    28  27  93 CALM      30.25S
RIFLE          CLEAR     29  24  82 E3        30.25S
DELTA          PTCLDY    30  26  84 CALM      30.26F
NUCLA          MOCLDY    34  30  86 E10       30.29S WCI  26
$$

COZ017>023-064>068-281300-
...SOUTHWEST COLORADO...

CITY           SKY/WX    TMP DP  RH WIND       PRES   REMARKS
DURANGO        PTCLDY    30  27  88 NE3       30.27F
CORTEZ         PTCLDY    31  28  89 E7        30.28R WCI  24
PAGOSA SPRINGS CLEAR     29  27  94 CALM      30.30S
TELLURIDE      NOT AVBL
WOLF CREEK PAS NOT AVBL
$$

COZ009-010-012-014-032>034-037-058>063-281300-
...CENTRAL COLORADO...

CITY           SKY/WX    TMP DP  RH WIND       PRES   REMARKS
ASPEN          PTCLDY    29  21  72 SW7       30.22F WCI  22
BUENA VISTA    CLOUDY    40  19  42 W8        30.18F
COPPER MTN     PTCLDY    25  16  68 W22G29    30.25F WCI  10
BERTHOUD PASS  LGT SNOW  18  10  73 NW43G58   30.16S WCI  -5
COTTONWOOD PAS MOCLDY    36  19  51 W28G45    30.18R
GUNNISON       MOCLDY    10   3  72 CALM      30.32F
KREMMLING      MOCLDY    18  14  86 CALM      30.22S
LEADVILLE      MOCLDY    29  16  58 NW10G21   30.23S WCI  20
MONARCH PASS   CLOUDY    23  18  80 W38       30.37S WCI   4
SALIDA         PTCLDY    44  19  37 W13G21    30.25R
SUNLIGHT       PTCLDY    27  23  86 CALM        N/A
WILKERSON PASS PTCLDY    27  14  59 W18G26    30.19R WCI  13
$$

COZ069>075-281300-
...SAN LUIS VALLEY/SANGRE DE CRISTO MOUNTAINS...

CITY           SKY/WX    TMP DP  RH WIND       PRES   REMARKS
ALAMOSA        MOCLDY    17  14  88 CALM      30.26R
LA VETA PASS   NOT AVBL
SAGUACHE       MOCLDY    30  23  74 NW10      30.26S WCI  21
$$

COZ035-036-038>040-281300-
...NORTHERN COLORADO FRONT RANGE...

CITY           SKY/WX    TMP DP  RH WIND       PRES   REMARKS
DENVER INTL AP CLOUDY    48  23  37 W14       29.99S
DMNS CITY PARK   N/A     47  21  35 SW8G14    30.00S
AURORA         MOCLDY    42  22  46 S7        30.03R
FRONT RANGE AP NOT AVBL
ERIE MUNI ARPT MOCLDY    49  19  31 SW8       29.99R
BOULDER MUN AP MOCLDY    48  21  34 SW7       29.99R
CENTENNIAL     MOCLDY    38  23  55 S7        30.03R
BROOMFIELD     MOCLDY    54  19  26 W24G35    30.01R
FORT COLLINS   CLOUDY    52  23  32 NW16G22   29.99S
LONGMONT       CLOUDY    49  20  32 CALM      30.00R
$$

COZ041-046-047-076>085-087-088-281300-
...PIKES PEAK/PALMER DIVIDE AND SOUTHERN FOOTHILLS...

CITY           SKY/WX    TMP DP  RH WIND       PRES   REMARKS
COLO. SPRINGS  CLOUDY    49  18  29 NW13      30.03R
A. F. ACADEMY  MOCLDY    47  18  30 NW9       30.08R
ELLICOTT       CLOUDY   N/A N/A N/A N9        30.02R
FALCON         CLOUDY    46  18  32 W25G32    30.05S
FORT CARSON    MOCLDY    37  22  53 E6        30.01R
LIMON          MOCLDY    33  25  72 NW7       30.00R WCI  27
MONUMENT HILL  CLOUDY    37  21  52 SW14      30.05S
TRINIDAD       CLOUDY    42  26  53 W15       30.03R
$$

COZ042>045-048>051-090-091-281300-
...NORTHEAST COLORADO...

CITY           SKY/WX    TMP DP  RH WIND       PRES   REMARKS
GREELEY ARPT   CLOUDY    30  21  69 CALM      29.97S
AKRON          MOCLDY    37  28  70 W16       29.96R
BURLINGTON     PTCLDY    37  29  72 NW9       29.94R
WRAY           PTCLDY    44  31  60 NW6       29.92R
STERLING       MOCLDY    34  32  93 CALM      29.95R
HOLYOKE        PTCLDY    46  32  57 NW14      29.92R
FORT MORGAN    MOCLDY    34  26  74 W3        29.98S
$$

COZ086-089-092>099-281300-
...SOUTHEAST COLORADO...

CITY           SKY/WX    TMP DP  RH WIND       PRES   REMARKS
PUEBLO         CLOUDY    54  22  28 NW25      29.98R
LA JUNTA       CLOUDY    39  28  64 NW9       29.99R
LAMAR          MOCLDY    44  29  55 W12       29.93R
SPRINGFIELD      N/A     50  30  46 NW21G28   29.95R
$$


USA.gov is the U.S. government's official web portal to all federal, state and local government web resources and services.